Time,TemperatureF,DewpointF,PressureIn,WindDirection,WindDirectionDegrees,WindSpeedMPH,WindSpeedGustMPH,Humidity,HourlyPrecipIn,Conditions,Clouds,dailyrainin,SoftwareType,DateUTC
2013-02-20 00:00:00,16.5,9.1,30.06,WSW,248,14.0,24.0,72,0.00,,SKC,0.00,VWS V14.01,2013-02-20 05:00:00,
2013-02-20 00:05:00,16.4,9.0,30.07,SW,235,21.0,21.0,72,0.00,,,0.00,weatherlink.com 1.10,2013-02-20 05:05:00,
2013-02-20 00:20:00,16.4,9.0,30.07,WSW,246,8.0,22.0,72,0.00,,,0.00,weatherlink.com 1.10,2013-02-20 05:20:00,
2013-02-20 00:30:00,16.4,9.0,30.07,WSW,248,14.0,27.0,72,0.00,,SKC,0.00,VWS V14.01,2013-02-20 05:30:00,
2013-02-20 00:35:00,16.4,9.0,30.07,WSW,252,7.0,27.0,72,0.00,,,0.00,weatherlink.com 1.10,2013-02-20 05:35:00,
2013-02-20 00:50:00,16.4,9.0,30.08,WSW,237,21.0,22.0,72,0.00,,,0.00,weatherlink.com 1.10,2013-02-20 05:50:00,
2013-02-20 01:00:00,16.5,9.1,30.08,WSW,248,12.0,22.0,72,0.00,,SKC,0.00,VWS V14.01,2013-02-20 06:00:00,
2013-02-20 01:05:00,16.5,9.0,30.09,WSW,249,17.0,21.0,72,0.00,,,0.00,weatherlink.com 1.10,2013-02-20 06:05:00,
2013-02-20 01:20:00,16.5,9.0,30.09,WSW,258,9.0,25.0,72,0.00,,,0.00,weatherlink.com 1.10,2013-02-20 06:20:00,
2013-02-20 01:30:00,16.5,9.1,30.09,WSW,248,13.0,25.0,72,0.00,,SKC,0.00,VWS V14.01,2013-02-20 06:30:00,
2013-02-20 01:35:00,16.5,9.0,30.09,West,265,11.0,18.0,73,0.00,,,0.00,weatherlink.com 1.10,2013-02-20 06:35:00,
2013-02-20 01:50:00,16.5,9.0,30.09,WSW,250,16.0,23.0,73,0.00,,,0.00,weatherlink.com 1.10,2013-02-20 06:50:00,
2013-02-20 02:00:00,16.5,9.7,30.10,WSW,248,13.0,23.0,74,0.00,,SKC,0.00,VWS V14.01,2013-02-20 07:00:00,
2013-02-20 02:05:00,16.4,9.0,30.10,WSW,255,5.0,23.0,73,0.00,,,0.00,weatherlink.com 1.10,2013-02-20 07:05:00,
2013-02-20 02:20:00,16.4,9.0,30.10,WSW,252,15.0,24.0,74,0.00,,,0.00,weatherlink.com 1.10,2013-02-20 07:20:00,
2013-02-20 02:30:00,16.4,9.6,30.10,WSW,248,13.0,25.0,74,0.00,,SKC,0.00,VWS V14.01,2013-02-20 07:30:00,
2013-02-20 02:35:00,16.4,9.0,30.10,SW,234,18.0,25.0,74,0.00,,,0.00,weatherlink.com 1.10,2013-02-20 07:35:00,
2013-02-20 02:50:00,16.3,9.0,30.11,SW,236,18.0,23.0,74,0.00,,,0.00,weatherlink.com 1.10,2013-02-20 07:50:00,
2013-02-20 03:00:00,16.3,9.8,30.11,WSW,248,13.0,25.0,75,0.00,,SKC,0.00,VWS V14.01,2013-02-20 08:00:00,
2013-02-20 03:20:00,16.4,10.0,30.11,SW,235,13.0,21.0,75,0.00,,,0.00,weatherlink.com 1.10,2013-02-20 08:20:00,
2013-02-20 03:35:00,16.3,10.0,30.11,WSW,252,12.0,21.0,75,0.00,,,0.00,weatherlink.com 1.10,2013-02-20 08:35:00,
2013-02-20 03:50:00,16.2,10.0,30.12,West,272,11.0,25.0,75,0.00,,,0.00,weatherlink.com 1.10,2013-02-20 08:50:00,
2013-02-20 04:00:00,16.2,9.7,30.12,WSW,257,9.0,18.0,75,0.09,,SKC,0.00,VWS V14.01,2013-02-20 09:00:00,
2013-02-20 04:02:00,16.2,9.7,30.12,West,266,18.0,18.0,75,0.09,,SKC,0.00,VWS V14.01,2013-02-20 09:02:00,
2013-02-20 04:07:00,16.2,9.7,30.12,WSW,249,18.0,18.0,75,0.09,,SKC,0.00,VWS V14.01,2013-02-20 09:07:00,
2013-02-20 04:12:00,16.2,9.7,30.12,WSW,244,9.0,18.0,75,0.09,,SKC,0.00,VWS V14.01,2013-02-20 09:12:00,
2013-02-20 04:17:00,16.2,9.4,30.12,WSW,243,16.0,16.0,74,0.09,,SKC,0.00,VWS V14.01,2013-02-20 09:17:00,
2013-02-20 04:22:00,16.2,9.4,30.12,WSW,244,13.0,17.0,74,0.09,,SKC,0.00,VWS V14.01,2013-02-20 09:22:00,
2013-02-20 04:27:00,16.3,9.5,30.12,WSW,246,13.0,21.0,74,0.09,,SKC,0.00,VWS V14.01,2013-02-20 09:27:00,
2013-02-20 04:30:00,16.3,9.8,30.13,West,276,8.0,13.0,75,0.09,,SKC,0.00,VWS V14.01,2013-02-20 09:30:00,
2013-02-20 04:32:00,16.3,9.8,30.13,WNW,288,7.0,13.0,75,0.09,,SKC,0.00,VWS V14.01,2013-02-20 09:32:00,
2013-02-20 04:37:00,16.3,9.8,30.13,NW,309,6.0,17.0,75,0.00,,SKC,0.00,VWS V14.01,2013-02-20 09:37:00,
2013-02-20 04:42:00,16.4,9.9,30.13,WSW,248,5.0,14.0,75,0.00,,SKC,0.00,VWS V14.01,2013-02-20 09:42:00,
2013-02-20 04:47:00,16.4,9.9,30.14,WSW,252,12.0,22.0,75,0.00,,SKC,0.00,VWS V14.01,2013-02-20 09:47:00,
2013-02-20 04:52:00,16.3,9.8,30.13,WSW,241,9.0,18.0,75,0.00,,SKC,0.00,VWS V14.01,2013-02-20 09:52:00,
2013-02-20 04:57:00,16.3,9.8,30.14,West,259,10.0,18.0,75,0.00,,SKC,0.00,VWS V14.01,2013-02-20 09:57:00,
2013-02-20 05:00:00,16.2,9.7,30.14,WSW,245,18.0,18.0,75,0.00,,SKC,0.00,VWS V14.01,2013-02-20 10:00:00,
2013-02-20 05:02:00,16.2,9.7,30.14,WSW,248,15.0,15.0,75,0.00,,SKC,0.00,VWS V14.01,2013-02-20 10:02:00,
2013-02-20 05:07:00,16.2,9.7,30.14,SW,233,13.0,16.0,75,0.00,,SKC,0.00,VWS V14.01,2013-02-20 10:07:00,
2013-02-20 05:12:00,16.2,9.7,30.14,WSW,238,12.0,21.0,75,0.00,,SKC,0.00,VWS V14.01,2013-02-20 10:12:00,
2013-02-20 05:17:00,16.1,9.6,30.14,WNW,288,7.0,23.0,75,0.00,,SKC,0.00,VWS V14.01,2013-02-20 10:17:00,
2013-02-20 05:22:00,16.1,9.6,30.15,WSW,254,6.0,16.0,75,0.00,,SKC,0.00,VWS V14.01,2013-02-20 10:22:00,
2013-02-20 05:27:00,16.1,9.6,30.15,WNW,291,11.0,19.0,75,0.00,,SKC,0.00,VWS V14.01,2013-02-20 10:27:00,
2013-02-20 05:30:00,16.1,9.6,30.15,WSW,257,14.0,19.0,75,0.00,,SKC,0.00,VWS V14.01,2013-02-20 10:30:00,
2013-02-20 05:32:00,16.1,9.6,30.15,SW,232,12.0,19.0,75,0.00,,SKC,0.00,VWS V14.01,2013-02-20 10:32:00,
2013-02-20 05:37:00,16.1,9.6,30.15,WSW,248,19.0,20.0,75,0.00,,SKC,0.00,VWS V14.01,2013-02-20 10:37:00,
2013-02-20 05:42:00,16.1,9.3,30.15,WSW,238,12.0,13.0,74,0.00,,SKC,0.00,VWS V14.01,2013-02-20 10:42:00,
2013-02-20 05:47:00,16.1,9.6,30.16,West,265,7.0,12.0,75,0.00,,SKC,0.00,VWS V14.01,2013-02-20 10:47:00,
2013-02-20 05:52:00,16.1,9.6,30.16,WSW,240,10.0,16.0,75,0.00,,SKC,0.00,VWS V14.01,2013-02-20 10:52:00,
2013-02-20 05:57:00,16.1,9.6,30.16,WSW,248,12.0,12.0,75,0.00,,SKC,0.00,VWS V14.01,2013-02-20 10:57:00,
2013-02-20 06:00:00,16.1,9.6,30.16,SW,235,13.0,18.0,75,0.00,,SKC,0.00,VWS V14.01,2013-02-20 11:00:00,
2013-02-20 06:02:00,16.1,9.6,30.16,West,259,8.0,18.0,75,0.00,,SKC,0.00,VWS V14.01,2013-02-20 11:02:00,
2013-02-20 06:07:00,16.0,9.5,30.16,WSW,251,6.0,14.0,75,0.00,,SKC,0.00,VWS V14.01,2013-02-20 11:07:00,
2013-02-20 06:30:00,15.3,9.1,30.17,WSW,257,9.0,12.0,76,0.00,,SKC,0.00,VWS V14.01,2013-02-20 11:30:00,
2013-02-20 07:00:00,14.6,8.7,30.17,WSW,245,11.0,15.0,77,0.00,,SKC,0.00,VWS V14.01,2013-02-20 12:00:00,
2013-02-20 07:30:00,14.2,8.3,30.18,WSW,250,14.0,14.0,77,0.00,,SKC,0.00,VWS V14.01,2013-02-20 12:30:00,
2013-02-20 07:54:00,14.4,8.5,30.20,West,273,9.0,13.0,77,0.00,,SKC,0.00,VWS V14.01,2013-02-20 12:54:00,
2013-02-20 07:59:00,14.5,8.9,30.20,WSW,248,14.0,15.0,78,0.00,,SKC,0.00,VWS V14.01,2013-02-20 12:59:00,
2013-02-20 08:00:00,14.6,9.0,30.20,WSW,247,8.0,14.0,78,0.00,,SKC,0.00,VWS V14.01,2013-02-20 13:00:00,
2013-02-20 08:04:00,14.7,9.1,30.20,SW,227,8.0,12.0,78,0.00,,SKC,0.00,VWS V14.01,2013-02-20 13:04:00,
2013-02-20 08:09:00,14.7,8.8,30.20,West,261,15.0,16.0,77,0.00,,SKC,0.00,VWS V14.01,2013-02-20 13:09:00,
2013-02-20 08:14:00,14.9,9.0,30.20,WSW,248,9.0,13.0,77,0.00,,SKC,0.00,VWS V14.01,2013-02-20 13:14:00,
2013-02-20 08:19:00,15.0,9.1,30.20,West,259,5.0,13.0,77,0.00,,SKC,0.00,VWS V14.01,2013-02-20 13:19:00,
2013-02-20 08:24:00,15.2,9.3,30.20,West,261,12.0,12.0,77,0.00,,SKC,0.00,VWS V14.01,2013-02-20 13:24:00,
2013-02-20 08:29:00,15.3,9.4,30.21,West,273,13.0,16.0,77,0.00,,SKC,0.00,VWS V14.01,2013-02-20 13:29:00,
2013-02-20 08:30:00,15.4,9.5,30.21,WSW,250,13.0,15.0,77,0.00,,SKC,0.00,VWS V14.01,2013-02-20 13:30:00,
2013-02-20 08:34:00,15.5,9.6,30.21,West,275,10.0,12.0,77,0.00,,SKC,0.00,VWS V14.01,2013-02-20 13:34:00,
2013-02-20 08:39:00,15.6,9.7,30.20,West,263,4.0,16.0,77,0.00,,SKC,0.00,VWS V14.01,2013-02-20 13:39:00,
2013-02-20 08:44:00,15.8,9.9,30.21,WSW,242,10.0,14.0,77,0.00,,SKC,0.00,VWS V14.01,2013-02-20 13:44:00,
2013-02-20 08:49:00,16.1,10.2,30.21,WNW,288,11.0,11.0,77,0.00,,SKC,0.00,VWS V14.01,2013-02-20 13:49:00,
2013-02-20 08:54:00,16.4,10.5,30.21,WSW,240,10.0,15.0,77,0.00,,SKC,0.00,VWS V14.01,2013-02-20 13:54:00,
2013-02-20 09:00:00,16.8,10.6,30.21,WSW,250,13.0,19.0,76,0.00,,SKC,0.00,VWS V14.01,2013-02-20 14:00:00,
2013-02-20 09:05:00,16.9,10.7,30.21,WSW,246,12.0,15.0,76,0.00,,SKC,0.00,VWS V14.01,2013-02-20 14:05:00,
2013-02-20 09:09:00,17.0,10.5,30.21,West,261,11.0,12.0,75,0.00,,SKC,0.00,VWS V14.01,2013-02-20 14:09:00,
2013-02-20 09:15:00,17.0,10.5,30.21,West,281,9.0,15.0,75,0.00,,SKC,0.00,VWS V14.01,2013-02-20 14:15:00,
2013-02-20 09:20:00,17.2,10.6,30.21,WSW,238,15.0,20.0,75,0.00,,SKC,0.00,VWS V14.01,2013-02-20 14:20:00,
2013-02-20 09:25:00,17.3,10.8,30.22,West,276,13.0,19.0,75,0.00,,SKC,0.00,VWS V14.01,2013-02-20 14:25:00,
2013-02-20 09:30:00,17.3,10.8,30.22,West,260,5.0,16.0,75,0.00,,SKC,0.00,VWS V14.01,2013-02-20 14:30:00,
2013-02-20 09:35:00,17.4,10.9,30.22,SW,231,10.0,19.0,75,0.00,,SKC,0.00,VWS V14.01,2013-02-20 14:35:00,
2013-02-20 09:40:00,17.4,10.6,30.22,WSW,244,10.0,18.0,74,0.00,,SKC,0.00,VWS V14.01,2013-02-20 14:40:00,
2013-02-20 09:45:00,17.5,10.6,30.22,WSW,256,18.0,21.0,74,0.00,,SKC,0.00,VWS V14.01,2013-02-20 14:45:00,
2013-02-20 09:50:00,17.6,11.0,30.22,West,267,8.0,18.0,75,0.00,,SKC,0.00,VWS V14.01,2013-02-20 14:50:00,
2013-02-20 09:55:00,17.7,10.8,30.22,WSW,255,8.0,16.0,74,0.00,,SKC,0.00,VWS V14.01,2013-02-20 14:55:00,
2013-02-20 10:00:00,18.0,11.1,30.22,West,261,11.0,19.0,74,0.00,,SKC,0.00,VWS V14.01,2013-02-20 15:00:00,
2013-02-20 10:01:00,18.0,11.1,30.22,WSW,246,7.0,7.0,74,0.00,,SKC,0.00,VWS V14.01,2013-02-20 15:01:00,
2013-02-20 10:06:00,18.2,11.3,30.22,West,272,6.0,15.0,74,0.00,,SKC,0.00,VWS V14.01,2013-02-20 15:06:00,
2013-02-20 10:11:00,18.4,11.5,30.22,WSW,238,10.0,16.0,74,0.00,,SKC,0.00,VWS V14.01,2013-02-20 15:11:00,
2013-02-20 10:16:00,18.7,11.8,30.22,WSW,246,7.0,19.0,74,0.00,,SKC,0.00,VWS V14.01,2013-02-20 15:16:00,
2013-02-20 10:21:00,18.8,11.6,30.22,WSW,253,13.0,18.0,73,0.00,,SKC,0.00,VWS V14.01,2013-02-20 15:21:00,
2013-02-20 10:26:00,18.8,11.6,30.23,SW,228,13.0,17.0,73,0.00,,SKC,0.00,VWS V14.01,2013-02-20 15:26:00,
2013-02-20 10:30:00,18.9,11.7,30.23,West,265,13.0,15.0,73,0.00,,SKC,0.00,VWS V14.01,2013-02-20 15:30:00,
2013-02-20 10:31:00,18.9,11.7,30.23,West,281,7.0,13.0,73,0.00,,SKC,0.00,VWS V14.01,2013-02-20 15:31:00,
2013-02-20 10:36:00,19.0,11.8,30.23,WNW,293,12.0,20.0,73,0.00,,SKC,0.00,VWS V14.01,2013-02-20 15:36:00,
2013-02-20 10:41:00,19.0,11.8,30.22,West,267,11.0,20.0,73,0.00,,SKC,0.00,VWS V14.01,2013-02-20 15:41:00,
2013-02-20 10:46:00,19.7,12.5,30.23,WSW,243,15.0,19.0,73,0.00,,SKC,0.00,VWS V14.01,2013-02-20 15:46:00,
2013-02-20 10:51:00,19.7,12.1,30.23,WSW,248,15.0,15.0,72,0.00,,SKC,0.00,VWS V14.01,2013-02-20 15:51:00,
2013-02-20 10:56:00,20.0,12.4,30.23,WSW,257,10.0,19.0,72,0.00,,SKC,0.00,VWS V14.01,2013-02-20 15:56:00,
2013-02-20 11:00:00,19.8,12.2,30.23,West,267,11.0,16.0,72,0.00,,SKC,0.00,VWS V14.01,2013-02-20 16:00:00,
2013-02-20 11:01:00,19.9,12.3,30.23,WSW,245,10.0,16.0,72,0.00,,SKC,0.00,VWS V14.01,2013-02-20 16:01:00,
2013-02-20 11:06:00,19.8,12.6,30.24,West,259,7.0,21.0,73,0.00,,SKC,0.00,VWS V14.01,2013-02-20 16:06:00,
2013-02-20 11:11:00,20.0,12.8,30.24,WSW,238,11.0,16.0,73,0.00,,SKC,0.00,VWS V14.01,2013-02-20 16:11:00,
2013-02-20 11:16:00,20.0,12.8,30.24,WSW,254,22.0,22.0,73,0.00,,SKC,0.00,VWS V14.01,2013-02-20 16:16:00,
2013-02-20 11:21:00,19.9,12.7,30.24,WSW,252,9.0,22.0,73,0.00,,SKC,0.00,VWS V14.01,2013-02-20 16:21:00,
2013-02-20 11:26:00,19.7,12.8,30.24,West,261,17.0,17.0,74,0.00,,SKC,0.00,VWS V14.01,2013-02-20 16:26:00,
2013-02-20 11:30:00,19.7,12.8,30.24,WNW,288,11.0,19.0,74,0.00,,SKC,0.00,VWS V14.01,2013-02-20 16:30:00,
2013-02-20 11:31:00,19.7,12.8,30.24,West,263,19.0,21.0,74,0.00,,SKC,0.00,VWS V14.01,2013-02-20 16:31:00,
2013-02-20 11:37:00,19.7,13.1,30.24,WSW,239,19.0,20.0,75,0.00,,SKC,0.00,VWS V14.01,2013-02-20 16:37:00,
2013-02-20 11:42:00,19.7,13.1,30.24,WSW,249,13.0,17.0,75,0.00,,SKC,0.00,VWS V14.01,2013-02-20 16:42:00,
2013-02-20 11:47:00,19.9,13.3,30.24,WSW,249,19.0,19.0,75,0.00,,SKC,0.00,VWS V14.01,2013-02-20 16:47:00,
2013-02-20 11:52:00,20.0,13.1,30.24,WSW,252,16.0,21.0,74,0.00,,SKC,0.00,VWS V14.01,2013-02-20 16:52:00,
2013-02-20 11:57:00,20.2,13.6,30.24,West,261,12.0,14.0,75,0.00,,SKC,0.00,VWS V14.01,2013-02-20 16:57:00,
2013-02-20 12:00:00,20.2,13.3,30.25,WSW,240,15.0,23.0,74,0.00,,SKC,0.00,VWS V14.01,2013-02-20 17:00:00,
2013-02-20 12:02:00,20.2,13.6,30.25,WSW,245,20.0,20.0,75,0.00,,SKC,0.00,VWS V14.01,2013-02-20 17:02:00,
2013-02-20 12:07:00,20.2,13.6,30.25,WSW,248,11.0,16.0,75,0.00,,SKC,0.00,VWS V14.01,2013-02-20 17:07:00,
2013-02-20 12:12:00,20.5,13.5,30.25,West,269,9.0,20.0,74,0.00,,SKC,0.00,VWS V14.01,2013-02-20 17:12:00,
2013-02-20 12:17:00,20.6,13.3,30.25,WSW,247,8.0,18.0,73,0.00,,SKC,0.00,VWS V14.01,2013-02-20 17:17:00,
2013-02-20 12:22:00,20.7,13.4,30.25,WSW,254,14.0,18.0,73,0.00,,SKC,0.00,VWS V14.01,2013-02-20 17:22:00,
2013-02-20 12:27:00,20.8,13.5,30.25,West,267,13.0,17.0,73,0.00,,SKC,0.00,VWS V14.01,2013-02-20 17:27:00,
2013-02-20 12:30:00,21.0,13.4,30.25,WSW,243,20.0,20.0,72,0.00,,SKC,0.00,VWS V14.01,2013-02-20 17:30:00,
2013-02-20 12:32:00,20.9,13.3,30.25,West,262,12.0,15.0,72,0.00,,SKC,0.00,VWS V14.01,2013-02-20 17:32:00,
2013-02-20 12:37:00,21.3,13.7,30.24,West,261,16.0,20.0,72,0.00,,SKC,0.00,VWS V14.01,2013-02-20 17:37:00,
2013-02-20 12:42:00,21.3,13.4,30.24,WSW,246,22.0,22.0,71,0.00,,SKC,0.00,VWS V14.01,2013-02-20 17:42:00,
2013-02-20 12:47:00,21.7,13.8,30.24,WSW,250,15.0,19.0,71,0.00,,SKC,0.00,VWS V14.01,2013-02-20 17:47:00,
2013-02-20 12:52:00,22.0,14.1,30.24,WSW,248,23.0,23.0,71,0.00,,SKC,0.00,VWS V14.01,2013-02-20 17:52:00,
2013-02-20 12:57:00,22.1,13.8,30.24,West,266,15.0,23.0,70,0.00,,SKC,0.00,VWS V14.01,2013-02-20 17:57:00,
2013-02-20 13:00:00,22.5,14.5,30.24,WSW,250,16.0,16.0,71,0.00,,SKC,0.00,VWS V14.01,2013-02-20 18:00:00,
2013-02-20 13:02:00,22.4,14.4,30.24,WNW,285,11.0,20.0,71,0.00,,SKC,0.00,VWS V14.01,2013-02-20 18:02:00,
2013-02-20 13:07:00,22.5,13.9,30.24,WSW,254,3.0,15.0,69,0.00,,SKC,0.00,VWS V14.01,2013-02-20 18:07:00,
2013-02-20 13:12:00,22.9,14.3,30.24,WSW,239,4.0,22.0,69,0.00,,SKC,0.00,VWS V14.01,2013-02-20 18:12:00,
2013-02-20 13:17:00,23.2,14.2,30.23,WSW,254,5.0,18.0,68,0.00,,SKC,0.00,VWS V14.01,2013-02-20 18:17:00,
2013-02-20 13:22:00,23.3,14.3,30.24,WSW,249,16.0,22.0,68,0.00,,SKC,0.00,VWS V14.01,2013-02-20 18:22:00,
2013-02-20 13:27:00,23.2,13.9,30.24,West,275,9.0,18.0,67,0.00,,SKC,0.00,VWS V14.01,2013-02-20 18:27:00,
2013-02-20 13:30:00,23.0,13.4,30.24,WSW,255,11.0,19.0,66,0.00,,SKC,0.00,VWS V14.01,2013-02-20 18:30:00,
2013-02-20 13:32:00,23.0,13.4,30.24,West,259,19.0,19.0,66,0.00,,SKC,0.00,VWS V14.01,2013-02-20 18:32:00,
2013-02-20 13:37:00,22.7,13.4,30.24,West,280,4.0,12.0,67,0.00,,SKC,0.00,VWS V14.01,2013-02-20 18:37:00,
2013-02-20 13:42:00,22.9,14.3,30.24,West,260,15.0,18.0,69,0.00,,SKC,0.00,VWS V14.01,2013-02-20 18:42:00,
2013-02-20 13:47:00,23.1,14.5,30.24,SW,235,18.0,21.0,69,0.00,,SKC,0.00,VWS V14.01,2013-02-20 18:47:00,
2013-02-20 13:52:00,23.0,13.7,30.24,WSW,243,17.0,17.0,67,0.00,,SKC,0.00,VWS V14.01,2013-02-20 18:52:00,
2013-02-20 13:57:00,22.7,13.4,30.24,West,267,18.0,19.0,67,0.00,,SKC,0.00,VWS V14.01,2013-02-20 18:57:00,
2013-02-20 14:00:00,22.6,13.3,30.24,WNW,286,5.0,14.0,67,0.00,,SKC,0.00,VWS V14.01,2013-02-20 19:00:00,
2013-02-20 14:02:00,22.7,13.4,30.24,West,259,8.0,14.0,67,0.00,,SKC,0.00,VWS V14.01,2013-02-20 19:02:00,
2013-02-20 14:07:00,22.4,13.1,30.24,WSW,258,17.0,17.0,67,0.00,,SKC,0.00,VWS V14.01,2013-02-20 19:07:00,
2013-02-20 14:12:00,22.5,13.2,30.24,WNW,288,6.0,19.0,67,0.00,,SKC,0.00,VWS V14.01,2013-02-20 19:12:00,
2013-02-20 14:17:00,22.5,12.9,30.24,West,274,16.0,16.0,66,0.00,,SKC,0.00,VWS V14.01,2013-02-20 19:17:00,
2013-02-20 14:22:00,22.7,13.4,30.24,WSW,243,11.0,14.0,67,0.00,,SKC,0.00,VWS V14.01,2013-02-20 19:22:00,
2013-02-20 14:27:00,23.0,13.4,30.24,West,273,16.0,16.0,66,0.00,,SKC,0.00,VWS V14.01,2013-02-20 19:27:00,
2013-02-20 14:30:00,23.1,13.4,30.25,WSW,238,5.0,16.0,66,0.00,,SKC,0.00,VWS V14.01,2013-02-20 19:30:00,
2013-02-20 14:32:00,23.1,13.4,30.25,WSW,238,5.0,16.0,66,0.00,,SKC,0.00,VWS V14.01,2013-02-20 19:32:00,
2013-02-20 14:37:00,23.1,14.1,30.25,WSW,249,15.0,17.0,68,0.00,,SKC,0.00,VWS V14.01,2013-02-20 19:37:00,
2013-02-20 14:42:00,22.9,13.9,30.25,WSW,250,17.0,19.0,68,0.00,,SKC,0.00,VWS V14.01,2013-02-20 19:42:00,
2013-02-20 14:47:00,22.6,14.3,30.25,WSW,254,8.0,16.0,70,0.00,,SKC,0.00,VWS V14.01,2013-02-20 19:47:00,
2013-02-20 14:52:00,22.5,14.2,30.25,West,263,7.0,15.0,70,0.00,,SKC,0.00,VWS V14.01,2013-02-20 19:52:00,
2013-02-20 14:57:00,22.7,14.4,30.26,West,262,10.0,19.0,70,0.00,,SKC,0.00,VWS V14.01,2013-02-20 19:57:00,
2013-02-20 15:00:00,22.9,14.3,30.26,WSW,240,14.0,14.0,69,0.00,,SKC,0.00,VWS V14.01,2013-02-20 20:00:00,
2013-02-20 15:02:00,22.9,14.3,30.26,WSW,240,14.0,14.0,69,0.00,,SKC,0.00,VWS V14.01,2013-02-20 20:02:00,
2013-02-20 15:08:00,23.0,14.7,30.26,West,263,8.0,15.0,70,0.00,,SKC,0.00,VWS V14.01,2013-02-20 20:08:00,
2013-02-20 15:13:00,22.8,14.2,30.26,WSW,249,10.0,15.0,69,0.00,,SKC,0.00,VWS V14.01,2013-02-20 20:13:00,
2013-02-20 15:18:00,22.6,14.3,30.26,West,266,9.0,20.0,70,0.00,,SKC,0.00,VWS V14.01,2013-02-20 20:18:00,
2013-02-20 15:23:00,22.5,14.5,30.27,West,275,3.0,19.0,71,0.00,,SKC,0.00,VWS V14.01,2013-02-20 20:23:00,
2013-02-20 15:28:00,22.6,14.3,30.27,West,261,15.0,21.0,70,0.00,,SKC,0.00,VWS V14.01,2013-02-20 20:28:00,
2013-02-20 15:30:00,22.6,14.3,30.27,WSW,239,8.0,15.0,70,0.00,,SKC,0.00,VWS V14.01,2013-02-20 20:30:00,
2013-02-20 15:33:00,22.6,14.3,30.27,WSW,244,10.0,15.0,70,0.00,,SKC,0.00,VWS V14.01,2013-02-20 20:33:00,
2013-02-20 15:38:00,22.9,14.6,30.27,WNW,288,6.0,16.0,70,0.00,,SKC,0.00,VWS V14.01,2013-02-20 20:38:00,
2013-02-20 15:43:00,22.9,14.6,30.27,WSW,242,14.0,16.0,70,0.00,,SKC,0.00,VWS V14.01,2013-02-20 20:43:00,
2013-02-20 15:48:00,22.8,14.5,30.27,WSW,242,11.0,18.0,70,0.00,,SKC,0.00,VWS V14.01,2013-02-20 20:48:00,
2013-02-20 15:53:00,22.9,14.6,30.27,West,271,12.0,15.0,70,0.00,,SKC,0.00,VWS V14.01,2013-02-20 20:53:00,
2013-02-20 15:58:00,23.0,14.7,30.27,WNW,283,11.0,20.0,70,0.00,,SKC,0.00,VWS V14.01,2013-02-20 20:58:00,
2013-02-20 16:00:00,22.9,14.6,30.27,West,270,6.0,13.0,70,0.00,,SKC,0.00,VWS V14.01,2013-02-20 21:00:00,
2013-02-20 16:03:00,22.9,14.6,30.27,West,262,11.0,13.0,70,0.00,,SKC,0.00,VWS V14.01,2013-02-20 21:03:00,
2013-02-20 16:08:00,23.1,14.8,30.28,WNW,286,8.0,14.0,70,0.00,,SKC,0.00,VWS V14.01,2013-02-20 21:08:00,
2013-02-20 16:13:00,23.3,15.0,30.28,WNW,290,9.0,12.0,70,0.00,,SKC,0.00,VWS V14.01,2013-02-20 21:13:00,
2013-02-20 16:18:00,23.2,14.9,30.28,WNW,285,5.0,17.0,70,0.00,,SKC,0.00,VWS V14.01,2013-02-20 21:18:00,
2013-02-20 16:23:00,23.1,14.8,30.28,West,281,7.0,13.0,70,0.00,,SKC,0.00,VWS V14.01,2013-02-20 21:23:00,
2013-02-20 16:28:00,23.0,14.7,30.28,West,276,12.0,13.0,70,0.00,,SKC,0.00,VWS V14.01,2013-02-20 21:28:00,
2013-02-20 16:30:00,22.9,14.6,30.28,WNW,294,5.0,12.0,70,0.00,,SKC,0.00,VWS V14.01,2013-02-20 21:30:00,
2013-02-20 16:33:00,22.9,14.6,30.28,West,271,1.0,10.0,70,0.00,,SKC,0.00,VWS V14.01,2013-02-20 21:33:00,
2013-02-20 16:38:00,23.0,14.7,30.28,WSW,257,10.0,10.0,70,0.00,,SKC,0.00,VWS V14.01,2013-02-20 21:38:00,
2013-02-20 16:43:00,23.1,14.8,30.28,West,263,11.0,16.0,70,0.00,,SKC,0.00,VWS V14.01,2013-02-20 21:43:00,
2013-02-20 16:48:00,22.9,14.6,30.28,West,277,8.0,11.0,70,0.00,,SKC,0.00,VWS V14.01,2013-02-20 21:48:00,
2013-02-20 16:53:00,22.7,14.4,30.28,West,272,11.0,19.0,70,0.00,,SKC,0.00,VWS V14.01,2013-02-20 21:53:00,
2013-02-20 16:59:00,22.6,14.6,30.28,WNW,286,8.0,18.0,71,0.00,,SKC,0.00,VWS V14.01,2013-02-20 21:59:00,
2013-02-20 17:00:00,22.6,14.6,30.28,WNW,286,5.0,12.0,71,0.00,,SKC,0.00,VWS V14.01,2013-02-20 22:00:00,
2013-02-20 17:04:00,22.6,14.6,30.28,WNW,290,9.0,10.0,71,0.00,,SKC,0.00,VWS V14.01,2013-02-20 22:04:00,
2013-02-20 17:09:00,22.6,14.9,30.27,West,279,5.0,11.0,72,0.00,,SKC,0.00,VWS V14.01,2013-02-20 22:09:00,
2013-02-20 17:14:00,22.6,14.9,30.27,West,272,7.0,16.0,72,0.00,,SKC,0.00,VWS V14.01,2013-02-20 22:14:00,
2013-02-20 17:19:00,22.6,14.9,30.27,WNW,286,10.0,17.0,72,0.00,,SKC,0.00,VWS V14.01,2013-02-20 22:19:00,
2013-02-20 17:24:00,22.6,15.3,30.27,NW,309,8.0,8.0,73,0.00,,SKC,0.00,VWS V14.01,2013-02-20 22:24:00,
2013-02-20 17:29:00,22.6,14.9,30.27,West,280,13.0,16.0,72,0.00,,SKC,0.00,VWS V14.01,2013-02-20 22:29:00,
2013-02-20 17:30:00,22.5,14.9,30.28,West,281,7.0,12.0,72,0.00,,SKC,0.00,VWS V14.01,2013-02-20 22:30:00,
2013-02-20 17:34:00,22.5,14.9,30.28,West,279,4.0,13.0,72,0.00,,SKC,0.00,VWS V14.01,2013-02-20 22:34:00,
2013-02-20 17:39:00,22.4,15.1,30.27,West,281,7.0,13.0,73,0.00,,SKC,0.00,VWS V14.01,2013-02-20 22:39:00,
2013-02-20 17:44:00,22.4,15.1,30.27,WNW,294,13.0,13.0,73,0.00,,SKC,0.00,VWS V14.01,2013-02-20 22:44:00,
2013-02-20 17:49:00,22.3,15.3,30.27,West,279,3.0,10.0,74,0.00,,SKC,0.00,VWS V14.01,2013-02-20 22:49:00,
2013-02-20 18:00:00,22.1,15.4,30.27,WNW,292,8.0,20.0,75,0.00,,SKC,0.00,VWS V14.01,2013-02-20 23:00:00,
2013-02-20 18:01:00,22.2,15.0,30.27,West,267,7.0,16.0,75,0.00,,,0.00,weatherlink.com 1.10,2013-02-20 23:01:00,
2013-02-20 18:16:00,22.2,16.0,30.28,WNW,288,9.0,15.0,76,0.00,,,0.00,weatherlink.com 1.10,2013-02-20 23:16:00,
2013-02-20 18:30:00,22.3,15.6,30.29,WNW,292,6.0,19.0,75,0.00,,SKC,0.00,VWS V14.01,2013-02-20 23:30:00,
2013-02-20 18:31:00,22.3,16.0,30.29,WNW,290,11.0,19.0,75,0.00,,,0.00,weatherlink.com 1.10,2013-02-20 23:31:00,
2013-02-20 18:46:00,22.1,16.0,30.30,West,280,4.0,18.0,76,0.00,,,0.00,weatherlink.com 1.10,2013-02-20 23:46:00,
2013-02-20 19:00:00,22.1,15.7,30.30,WNW,292,7.0,21.0,76,0.00,,SKC,0.00,VWS V14.01,2013-02-21 00:00:00,
2013-02-20 19:01:00,22.1,16.0,30.30,NW,304,5.0,14.0,76,0.00,,,0.00,weatherlink.com 1.10,2013-02-21 00:01:00,
2013-02-20 19:16:00,22.1,16.0,30.30,WNW,287,3.0,13.0,76,0.00,,,0.00,weatherlink.com 1.10,2013-02-21 00:16:00,
2013-02-20 19:30:00,22.2,15.5,30.30,WNW,292,6.0,16.0,75,0.00,,SKC,0.00,VWS V14.01,2013-02-21 00:30:00,
2013-02-20 19:31:00,22.2,15.0,30.30,West,281,9.0,11.0,75,0.00,,,0.00,weatherlink.com 1.10,2013-02-21 00:31:00,
2013-02-20 19:46:00,22.3,16.0,30.30,West,273,7.0,12.0,75,0.00,,,0.00,weatherlink.com 1.10,2013-02-21 00:46:00,
2013-02-20 20:00:00,22.3,15.6,30.30,WNW,292,5.0,13.0,75,0.00,,SKC,0.00,VWS V14.01,2013-02-21 01:00:00,
2013-02-20 20:01:00,22.3,16.0,30.30,WSW,252,5.0,12.0,75,0.00,,,0.00,weatherlink.com 1.10,2013-02-21 01:01:00,
2013-02-20 20:16:00,22.4,16.0,30.31,West,270,2.0,14.0,75,0.00,,,0.00,weatherlink.com 1.10,2013-02-21 01:16:00,
2013-02-20 20:30:00,22.4,15.7,30.31,WNW,292,5.0,14.0,75,0.00,,SKC,0.00,VWS V14.01,2013-02-21 01:30:00,
2013-02-20 20:31:00,22.5,16.0,30.31,NW,310,12.0,13.0,75,0.00,,,0.00,weatherlink.com 1.10,2013-02-21 01:31:00,
2013-02-20 20:46:00,22.4,16.0,30.31,WNW,290,5.0,10.0,75,0.00,,,0.00,weatherlink.com 1.10,2013-02-21 01:46:00,
2013-02-20 21:01:00,22.4,16.0,30.31,NW,315,4.0,9.0,77,0.00,,,0.00,weatherlink.com 1.10,2013-02-21 02:01:00,
2013-02-20 21:16:00,22.2,16.0,30.31,WNW,288,7.0,11.0,78,0.00,,,0.00,weatherlink.com 1.10,2013-02-21 02:16:00,
2013-02-20 21:28:00,22.1,15.7,30.31,NW,323,7.0,7.0,76,0.00,,SKC,0.00,VWS V14.01,2013-02-21 02:28:00,
2013-02-20 21:33:00,22.1,15.4,30.31,NW,308,2.0,10.0,75,0.00,,SKC,0.00,VWS V14.01,2013-02-21 02:33:00,
2013-02-20 21:38:00,22.1,15.4,30.31,NW,306,8.0,12.0,75,0.00,,SKC,0.00,VWS V14.01,2013-02-21 02:38:00,
2013-02-20 21:43:00,22.1,15.1,30.31,NW,314,8.0,9.0,74,0.00,,SKC,0.00,VWS V14.01,2013-02-21 02:43:00,
2013-02-20 21:48:00,22.1,15.1,30.31,NW,310,11.0,11.0,74,0.00,,SKC,0.00,VWS V14.01,2013-02-21 02:48:00,
2013-02-20 21:53:00,22.1,15.1,30.31,NW,309,4.0,9.0,74,0.00,,SKC,0.00,VWS V14.01,2013-02-21 02:53:00,
2013-02-20 21:58:00,22.1,15.4,30.31,West,281,9.0,9.0,75,0.00,,SKC,0.00,VWS V14.01,2013-02-21 02:58:00,
2013-02-20 22:03:00,22.0,15.3,30.31,NW,321,5.0,8.0,75,0.00,,SKC,0.00,VWS V14.01,2013-02-21 03:03:00,
2013-02-20 22:09:00,22.0,15.3,30.31,WNW,294,6.0,8.0,75,0.00,,SKC,0.00,VWS V14.01,2013-02-21 03:09:00,
2013-02-20 22:14:00,22.0,15.3,30.31,NW,326,5.0,9.0,75,0.00,,SKC,0.00,VWS V14.01,2013-02-21 03:14:00,
2013-02-20 22:19:00,21.9,15.5,30.31,WNW,284,9.0,9.0,76,0.00,,SKC,0.00,VWS V14.01,2013-02-21 03:19:00,
2013-02-20 22:24:00,21.8,15.4,30.31,NW,317,5.0,11.0,76,0.00,,SKC,0.00,VWS V14.01,2013-02-21 03:24:00,
2013-02-20 22:29:00,21.8,15.1,30.31,NNW,331,7.0,10.0,75,0.00,,SKC,0.00,VWS V14.01,2013-02-21 03:29:00,
2013-02-20 22:34:00,21.7,15.0,30.31,NW,304,5.0,14.0,75,0.00,,SKC,0.00,VWS V14.01,2013-02-21 03:34:00,
2013-02-20 22:39:00,21.6,14.6,30.31,NW,305,9.0,11.0,74,0.00,,SKC,0.00,VWS V14.01,2013-02-21 03:39:00,
2013-02-20 22:44:00,21.6,14.6,30.31,NNW,333,7.0,12.0,74,0.00,,SKC,0.00,VWS V14.01,2013-02-21 03:44:00,
2013-02-20 22:49:00,21.5,14.5,30.31,WNW,285,3.0,11.0,74,0.00,,SKC,0.00,VWS V14.01,2013-02-21 03:49:00,
2013-02-20 22:54:00,21.4,14.4,30.31,NW,317,5.0,10.0,74,0.00,,SKC,0.00,VWS V14.01,2013-02-21 03:54:00,
2013-02-20 22:59:00,21.4,14.4,30.31,NW,304,7.0,10.0,74,0.00,,SKC,0.00,VWS V14.01,2013-02-21 03:59:00,
2013-02-20 23:04:00,21.4,14.4,30.31,NW,320,5.0,6.0,74,0.00,,SKC,0.00,VWS V14.01,2013-02-21 04:04:00,
2013-02-20 23:09:00,21.4,14.4,30.31,NW,304,2.0,4.0,74,0.00,,SKC,0.00,VWS V14.01,2013-02-21 04:09:00,
2013-02-20 23:14:00,21.3,14.3,30.30,NW,312,3.0,6.0,74,0.00,,SKC,0.00,VWS V14.01,2013-02-21 04:14:00,
2013-02-20 23:19:00,21.3,14.6,30.31,NW,317,3.0,5.0,75,0.00,,SKC,0.00,VWS V14.01,2013-02-21 04:19:00,
2013-02-20 23:24:00,21.2,14.5,30.31,West,279,3.0,5.0,75,0.00,,SKC,0.00,VWS V14.01,2013-02-21 04:24:00,
2013-02-20 23:29:00,21.2,14.5,30.31,NW,306,3.0,8.0,75,0.00,,SKC,0.00,VWS V14.01,2013-02-21 04:29:00,
2013-02-20 23:34:00,21.2,14.2,30.31,WNW,282,6.0,6.0,74,0.00,,SKC,0.00,VWS V14.01,2013-02-21 04:34:00,
2013-02-20 23:39:00,21.2,14.5,30.31,NW,320,5.0,7.0,75,0.00,,SKC,0.00,VWS V14.01,2013-02-21 04:39:00,
2013-02-20 23:44:00,21.2,14.5,30.31,NW,308,4.0,7.0,75,0.00,,SKC,0.00,VWS V14.01,2013-02-21 04:44:00,
2013-02-20 23:49:00,21.2,14.5,30.31,NW,314,4.0,7.0,75,0.00,,SKC,0.00,VWS V14.01,2013-02-21 04:49:00,
2013-02-20 23:54:00,21.2,14.5,30.31,NW,314,3.0,6.0,75,0.00,,SKC,0.00,VWS V14.01,2013-02-21 04:54:00,
2013-02-20 23:59:00,21.3,14.6,30.31,NW,309,3.0,9.0,75,0.00,,SKC,0.00,VWS V14.01,2013-02-21 04:59:00,